Time,TemperatureF,DewpointF,PressureIn,WindDirection,WindDirectionDegrees,WindSpeedMPH,WindSpeedGustMPH,Humidity,HourlyPrecipIn,Conditions,Clouds,dailyrainin,SoftwareType,DateUTC
2013-04-22 00:02:00,59.0,44.0,30.11,South,175,7.0,-999.0,58,-99.99,,,-99.99,,2013-04-22 05:02:00,
2013-04-22 00:12:00,59.0,44.0,30.11,South,175,7.0,-999.0,58,-99.99,,,-99.99,,2013-04-22 05:12:00,
2013-04-22 00:22:00,59.0,44.0,30.10,South,174,4.0,-999.0,57,-99.99,,,-99.99,,2013-04-22 05:22:00,
2013-04-22 00:32:00,59.0,44.0,30.11,South,175,2.0,-999.0,57,-99.99,,,-99.99,,2013-04-22 05:32:00,
2013-04-22 00:42:00,59.0,44.0,30.11,South,175,2.0,-999.0,57,-99.99,,,-99.99,,2013-04-22 05:42:00,
2013-04-22 00:52:00,59.0,44.0,30.10,South,174,7.0,-999.0,57,-99.99,,,-99.99,,2013-04-22 05:52:00,
2013-04-22 01:02:00,58.0,43.0,30.10,South,170,4.0,-999.0,58,-99.99,,,-99.99,,2013-04-22 06:02:00,
2013-04-22 01:12:00,58.0,43.0,30.10,South,170,4.0,-999.0,58,-99.99,,,-99.99,,2013-04-22 06:12:00,
2013-04-22 01:21:00,57.0,43.0,30.10,South,171,2.0,-999.0,59,-99.99,,,-99.99,,2013-04-22 06:21:00,
2013-04-22 01:32:00,57.0,43.0,30.10,South,172,3.0,-999.0,59,-99.99,,,-99.99,,2013-04-22 06:32:00,
2013-04-22 01:42:00,57.0,43.0,30.10,South,172,3.0,-999.0,59,-99.99,,,-99.99,,2013-04-22 06:42:00,
2013-04-22 01:52:00,57.0,43.0,30.10,South,172,0.0,-999.0,59,-99.99,,,-99.99,,2013-04-22 06:52:00,
2013-04-22 02:01:00,57.0,42.0,30.09,South,174,3.0,-999.0,58,-99.99,,,-99.99,,2013-04-22 07:01:00,
2013-04-22 02:12:00,57.0,42.0,30.09,South,174,3.0,-999.0,58,-99.99,,,-99.99,,2013-04-22 07:12:00,
2013-04-22 02:21:00,56.0,42.0,30.09,South,174,0.0,-999.0,59,-99.99,,,-99.99,,2013-04-22 07:21:00,
2013-04-22 02:32:00,54.0,41.0,30.09,South,174,0.0,-999.0,61,-99.99,,,-99.99,,2013-04-22 07:32:00,
2013-04-22 02:42:00,54.0,41.0,30.09,South,174,0.0,-999.0,61,-99.99,,,-99.99,,2013-04-22 07:42:00,
2013-04-22 02:52:00,53.0,41.0,30.09,South,174,0.0,-999.0,64,-99.99,,,-99.99,,2013-04-22 07:52:00,
2013-04-22 03:02:00,52.0,41.0,30.08,South,174,0.0,-999.0,65,-99.99,,,-99.99,,2013-04-22 08:02:00,
2013-04-22 03:11:00,52.0,41.0,30.08,South,174,0.0,-999.0,65,-99.99,,,-99.99,,2013-04-22 08:11:00,
2013-04-22 03:22:00,52.0,41.0,30.08,South,174,0.0,-999.0,65,-99.99,,,-99.99,,2013-04-22 08:22:00,
2013-04-22 03:32:00,52.0,41.0,30.08,South,174,0.0,-999.0,66,-99.99,,,-99.99,,2013-04-22 08:32:00,
2013-04-22 03:42:00,52.0,41.0,30.08,South,174,0.0,-999.0,66,-99.99,,,-99.99,,2013-04-22 08:42:00,
2013-04-22 03:52:00,52.0,41.0,30.07,South,174,1.0,-999.0,65,-99.99,,,-99.99,,2013-04-22 08:52:00,
2013-04-22 04:01:00,51.0,40.0,30.08,South,174,0.0,-999.0,66,-99.99,,,-99.99,,2013-04-22 09:01:00,
2013-04-22 04:11:00,51.0,40.0,30.08,South,174,0.0,-999.0,66,-99.99,,,-99.99,,2013-04-22 09:11:00,
2013-04-22 04:21:00,51.0,40.0,30.08,South,174,0.0,-999.0,67,-99.99,,,-99.99,,2013-04-22 09:21:00,
2013-04-22 04:33:00,52.0,41.0,30.08,South,174,0.0,-999.0,66,-99.99,,,-99.99,,2013-04-22 09:33:00,
2013-04-22 04:42:00,52.0,41.0,30.08,South,174,0.0,-999.0,66,-99.99,,,-99.99,,2013-04-22 09:42:00,
2013-04-22 04:52:00,52.0,40.0,30.08,South,174,5.0,-999.0,64,-99.99,,,-99.99,,2013-04-22 09:52:00,
2013-04-22 05:03:00,53.0,41.0,30.08,South,174,4.0,-999.0,64,-99.99,,,-99.99,,2013-04-22 10:03:00,
2013-04-22 05:12:00,53.0,41.0,30.08,South,174,4.0,-999.0,64,-99.99,,,-99.99,,2013-04-22 10:12:00,
2013-04-22 05:22:00,53.0,41.0,30.08,South,174,5.0,-999.0,64,-99.99,,,-99.99,,2013-04-22 10:22:00,
2013-04-22 05:32:00,52.0,41.0,30.09,South,174,0.0,-999.0,65,-99.99,,,-99.99,,2013-04-22 10:32:00,
2013-04-22 05:42:00,52.0,41.0,30.09,South,174,0.0,-999.0,65,-99.99,,,-99.99,,2013-04-22 10:42:00,
2013-04-22 05:52:00,52.0,41.0,30.08,South,174,1.0,-999.0,66,-99.99,,,-99.99,,2013-04-22 10:52:00,
2013-04-22 06:02:00,51.0,40.0,30.07,South,174,1.0,-999.0,66,-99.99,,,-99.99,,2013-04-22 11:02:00,
2013-04-22 06:12:00,51.0,40.0,30.07,South,174,1.0,-999.0,66,-99.99,,,-99.99,,2013-04-22 11:12:00,
2013-04-22 06:22:00,51.0,40.0,30.07,South,174,1.0,-999.0,67,-99.99,,,-99.99,,2013-04-22 11:22:00,
2013-04-22 06:32:00,50.0,40.0,30.07,South,174,2.0,-999.0,68,-99.99,,,-99.99,,2013-04-22 11:32:00,
2013-04-22 06:42:00,50.0,40.0,30.07,South,174,2.0,-999.0,68,-99.99,,,-99.99,,2013-04-22 11:42:00,
2013-04-22 06:52:00,50.0,40.0,30.07,South,174,3.0,-999.0,69,-99.99,,,-99.99,,2013-04-22 11:52:00,
2013-04-22 07:02:00,50.0,40.0,30.07,South,174,0.0,-999.0,69,-99.99,,,-99.99,,2013-04-22 12:02:00,
2013-04-22 07:12:00,50.0,40.0,30.07,South,174,0.0,-999.0,69,-99.99,,,-99.99,,2013-04-22 12:12:00,
2013-04-22 07:21:00,49.0,40.0,30.07,South,174,0.0,-999.0,71,-99.99,,,-99.99,,2013-04-22 12:21:00,
2013-04-22 07:32:00,49.0,40.0,30.07,South,174,0.0,-999.0,72,-99.99,,,-99.99,,2013-04-22 12:32:00,
2013-04-22 07:42:00,49.0,40.0,30.07,South,174,0.0,-999.0,72,-99.99,,,-99.99,,2013-04-22 12:42:00,
2013-04-22 07:52:00,50.0,41.0,30.07,South,174,1.0,-999.0,71,-99.99,,,-99.99,,2013-04-22 12:52:00,
2013-04-22 08:01:00,52.0,42.0,30.06,South,178,6.0,-999.0,68,-99.99,,,-99.99,,2013-04-22 13:01:00,
2013-04-22 08:11:00,52.0,42.0,30.06,South,178,6.0,-999.0,68,-99.99,,,-99.99,,2013-04-22 13:11:00,
2013-04-22 08:22:00,53.0,42.0,30.07,South,180,6.0,-999.0,66,-99.99,,,-99.99,,2013-04-22 13:22:00,
2013-04-22 08:32:00,53.0,41.0,30.07,South,182,7.0,-999.0,64,-99.99,,,-99.99,,2013-04-22 13:32:00,
2013-04-22 08:41:00,53.0,41.0,30.07,South,182,7.0,-999.0,64,-99.99,,,-99.99,,2013-04-22 13:41:00,
2013-04-22 08:52:00,55.0,43.0,30.07,South,180,8.0,-999.0,63,-99.99,,,-99.99,,2013-04-22 13:52:00,
2013-04-22 09:02:00,55.0,42.0,30.07,South,176,8.0,-999.0,61,-99.99,,,-99.99,,2013-04-22 14:02:00,
2013-04-22 09:11:00,55.0,42.0,30.07,South,176,8.0,-999.0,61,-99.99,,,-99.99,,2013-04-22 14:11:00,
2013-04-22 09:21:00,55.0,42.0,30.06,South,180,8.0,-999.0,62,-99.99,,,-99.99,,2013-04-22 14:21:00,
2013-04-22 09:33:00,56.0,43.0,30.07,South,180,9.0,-999.0,62,-99.99,,,-99.99,,2013-04-22 14:33:00,
2013-04-22 09:42:00,56.0,43.0,30.07,South,180,9.0,-999.0,62,-99.99,,,-99.99,,2013-04-22 14:42:00,
2013-04-22 09:52:00,56.0,43.0,30.07,South,178,9.0,-999.0,61,-99.99,,,-99.99,,2013-04-22 14:52:00,
2013-04-22 10:02:00,58.0,44.0,30.07,South,179,9.0,-999.0,59,-99.99,,,-99.99,,2013-04-22 15:02:00,
2013-04-22 10:11:00,58.0,44.0,30.07,South,179,9.0,-999.0,59,-99.99,,,-99.99,,2013-04-22 15:11:00,
2013-04-22 10:22:00,58.0,43.0,30.07,South,169,8.0,-999.0,58,-99.99,,,-99.99,,2013-04-22 15:22:00,
2013-04-22 10:33:00,58.0,43.0,30.07,South,179,8.0,-999.0,58,-99.99,,,-99.99,,2013-04-22 15:33:00,
2013-04-22 10:43:00,58.0,43.0,30.07,South,179,8.0,-999.0,58,-99.99,,,-99.99,,2013-04-22 15:43:00,
2013-04-22 10:53:00,59.0,44.0,30.06,South,178,5.0,-999.0,58,-99.99,,,-99.99,,2013-04-22 15:53:00,
2013-04-22 11:02:00,61.0,45.0,30.06,South,173,8.0,-999.0,56,-99.99,,,-99.99,,2013-04-22 16:02:00,
2013-04-22 11:12:00,61.0,45.0,30.06,South,173,8.0,-999.0,56,-99.99,,,-99.99,,2013-04-22 16:12:00,
2013-04-22 11:23:00,61.0,44.0,30.05,South,179,8.0,-999.0,53,-99.99,,,-99.99,,2013-04-22 16:23:00,
2013-04-22 11:33:00,62.0,44.0,30.04,South,175,8.0,-999.0,52,-99.99,,,-99.99,,2013-04-22 16:33:00,
2013-04-22 11:42:00,62.0,44.0,30.04,South,175,8.0,-999.0,52,-99.99,,,-99.99,,2013-04-22 16:42:00,
2013-04-22 11:52:00,63.0,44.0,30.04,South,175,5.0,-999.0,50,-99.99,,,-99.99,,2013-04-22 16:52:00,
2013-04-22 12:02:00,63.0,45.0,30.03,South,173,7.0,-999.0,51,-99.99,,,-99.99,,2013-04-22 17:02:00,
2013-04-22 12:12:00,63.0,45.0,30.03,South,173,7.0,-999.0,51,-99.99,,,-99.99,,2013-04-22 17:12:00,
2013-04-22 12:22:00,63.0,45.0,30.02,South,175,9.0,-999.0,52,-99.99,,,-99.99,,2013-04-22 17:22:00,
2013-04-22 12:32:00,63.0,45.0,30.01,South,174,7.0,-999.0,51,-99.99,,,-99.99,,2013-04-22 17:32:00,
2013-04-22 12:42:00,63.0,45.0,30.01,South,174,7.0,-999.0,51,-99.99,,,-99.99,,2013-04-22 17:42:00,
2013-04-22 12:52:00,64.0,45.0,30.01,South,169,9.0,-999.0,51,-99.99,,,-99.99,,2013-04-22 17:52:00,
2013-04-22 13:01:00,64.0,45.0,29.99,South,187,12.0,-999.0,50,-99.99,,,-99.99,,2013-04-22 18:01:00,
2013-04-22 13:12:00,64.0,45.0,29.99,South,187,12.0,-999.0,50,-99.99,,,-99.99,,2013-04-22 18:12:00,
2013-04-22 13:21:00,65.0,46.0,29.98,South,171,9.0,-999.0,50,-99.99,,,-99.99,,2013-04-22 18:21:00,
2013-04-22 13:32:00,66.0,46.0,29.96,South,182,10.0,-999.0,49,-99.99,,,-99.99,,2013-04-22 18:32:00,
2013-04-22 13:42:00,66.0,46.0,29.96,South,182,10.0,-999.0,49,-99.99,,,-99.99,,2013-04-22 18:42:00,
2013-04-22 13:52:00,66.0,45.0,29.96,SSE,167,9.0,-999.0,47,-99.99,,,-99.99,,2013-04-22 18:52:00,
2013-04-22 14:01:00,64.0,44.0,29.96,South,174,10.0,-999.0,48,-99.99,,,-99.99,,2013-04-22 19:01:00,
2013-04-22 14:12:00,64.0,44.0,29.96,South,174,10.0,-999.0,48,-99.99,,,-99.99,,2013-04-22 19:12:00,
2013-04-22 14:21:00,63.0,44.0,29.96,South,171,10.0,-999.0,49,-99.99,,,-99.99,,2013-04-22 19:21:00,
2013-04-22 14:32:00,62.0,44.0,29.96,SSE,167,8.0,-999.0,51,-99.99,,,-99.99,,2013-04-22 19:32:00,
2013-04-22 14:42:00,62.0,44.0,29.96,SSE,167,8.0,-999.0,51,-99.99,,,-99.99,,2013-04-22 19:42:00,
2013-04-22 14:52:00,62.0,46.0,29.95,South,184,6.0,-999.0,55,-99.99,,,-99.99,,2013-04-22 19:52:00,
2013-04-22 15:02:00,60.0,46.0,29.95,South,180,2.0,-999.0,60,-99.99,,,-99.99,,2013-04-22 20:02:00,
2013-04-22 15:11:00,60.0,46.0,29.95,South,180,2.0,-999.0,60,-99.99,,,-99.99,,2013-04-22 20:11:00,
2013-04-22 15:22:00,62.0,46.0,29.93,South,169,2.0,-999.0,56,-99.99,,,-99.99,,2013-04-22 20:22:00,
2013-04-22 15:32:00,62.0,45.0,29.92,South,174,4.0,-999.0,54,-99.99,,,-99.99,,2013-04-22 20:32:00,
2013-04-22 15:42:00,62.0,45.0,29.92,South,174,4.0,-999.0,54,-99.99,,,-99.99,,2013-04-22 20:42:00,
2013-04-22 15:51:00,62.0,45.0,29.91,SSE,165,5.0,-999.0,53,-99.99,,,-99.99,,2013-04-22 20:51:00,
2013-04-22 16:02:00,62.0,45.0,29.92,South,169,4.0,-999.0,53,-99.99,,,-99.99,,2013-04-22 21:02:00,
2013-04-22 16:11:00,62.0,45.0,29.92,South,169,4.0,-999.0,53,-99.99,,,-99.99,,2013-04-22 21:11:00,
2013-04-22 16:21:00,63.0,45.0,29.91,SSE,156,2.0,-999.0,52,-99.99,,,-99.99,,2013-04-22 21:21:00,
2013-04-22 16:32:00,63.0,45.0,29.91,SSE,167,2.0,-999.0,52,-99.99,,,-99.99,,2013-04-22 21:32:00,
2013-04-22 16:42:00,63.0,45.0,29.91,SSE,167,2.0,-999.0,52,-99.99,,,-99.99,,2013-04-22 21:42:00,
2013-04-22 16:53:00,62.0,46.0,29.91,SSE,164,1.0,-999.0,55,-99.99,,,-99.99,,2013-04-22 21:53:00,
2013-04-22 17:02:00,61.0,48.0,29.93,SSE,164,0.0,-999.0,63,-99.99,,,-99.99,,2013-04-22 22:02:00,
2013-04-22 17:12:00,61.0,48.0,29.93,SSE,164,0.0,-999.0,63,-99.99,,,-99.99,,2013-04-22 22:12:00,
2013-04-22 17:22:00,58.0,48.0,29.93,South,178,7.0,-999.0,69,-99.99,,,-99.99,,2013-04-22 22:22:00,
2013-04-22 17:33:00,57.0,51.0,29.92,South,177,0.0,-999.0,80,-99.99,,,-99.99,,2013-04-22 22:33:00,
2013-04-22 17:42:00,57.0,51.0,29.92,South,177,0.0,-999.0,80,-99.99,,,-99.99,,2013-04-22 22:42:00,
2013-04-22 17:52:00,56.0,51.0,29.94,South,177,0.0,-999.0,84,-99.99,,,-99.99,,2013-04-22 22:52:00,
2013-04-22 18:02:00,55.0,51.0,29.95,South,177,0.0,-999.0,87,-99.99,,,-99.99,,2013-04-22 23:02:00,
2013-04-22 18:11:00,55.0,52.0,29.95,South,177,0.0,-999.0,88,-99.99,,,-99.99,,2013-04-22 23:11:00,
2013-04-22 18:21:00,55.0,52.0,29.95,South,177,0.0,-999.0,88,-99.99,,,-99.99,,2013-04-22 23:21:00,
2013-04-22 18:32:00,55.0,52.0,29.96,South,177,0.0,-999.0,90,-99.99,,,-99.99,,2013-04-22 23:32:00,
2013-04-22 18:42:00,55.0,52.0,29.96,South,177,0.0,-999.0,90,-99.99,,,-99.99,,2013-04-22 23:42:00,
2013-04-22 18:52:00,54.0,51.0,29.96,South,177,0.0,-999.0,90,-99.99,,,-99.99,,2013-04-22 23:52:00,
2013-04-22 19:02:00,54.0,51.0,29.96,South,177,0.0,-999.0,91,-99.99,,,-99.99,,2013-04-23 00:02:00,
2013-04-22 19:12:00,54.0,51.0,29.96,South,177,0.0,-999.0,91,-99.99,,,-99.99,,2013-04-23 00:12:00,
2013-04-22 19:21:00,54.0,52.0,29.97,South,177,0.0,-999.0,92,-99.99,,,-99.99,,2013-04-23 00:21:00,
2013-04-22 19:32:00,53.0,51.0,29.96,South,177,5.0,-999.0,92,-99.99,,,-99.99,,2013-04-23 00:32:00,
2013-04-22 19:42:00,53.0,51.0,29.96,South,177,5.0,-999.0,92,-99.99,,,-99.99,,2013-04-23 00:42:00,
2013-04-22 19:51:00,53.0,51.0,29.97,South,177,5.0,-999.0,93,-99.99,,,-99.99,,2013-04-23 00:51:00,
2013-04-22 20:01:00,53.0,51.0,29.97,South,171,4.0,-999.0,93,-99.99,,,-99.99,,2013-04-23 01:01:00,
2013-04-22 20:11:00,53.0,51.0,29.97,South,171,4.0,-999.0,93,-99.99,,,-99.99,,2013-04-23 01:11:00,
2013-04-22 20:21:00,52.0,50.0,29.97,South,175,6.0,-999.0,93,-99.99,,,-99.99,,2013-04-23 01:21:00,
2013-04-22 20:32:00,52.0,50.0,29.98,NNE,14,5.0,-999.0,93,-99.99,,,-99.99,,2013-04-23 01:32:00,
2013-04-22 20:42:00,52.0,50.0,29.98,NNE,14,5.0,-999.0,93,-99.99,,,-99.99,,2013-04-23 01:42:00,
2013-04-22 20:52:00,52.0,50.0,29.99,NNE,13,4.0,-999.0,94,-99.99,,,-99.99,,2013-04-23 01:52:00,
2013-04-22 21:02:00,52.0,50.0,29.99,NNE,13,0.0,-999.0,94,-99.99,,,-99.99,,2013-04-23 02:02:00,
2013-04-22 21:12:00,52.0,50.0,29.99,NNE,13,0.0,-999.0,94,-99.99,,,-99.99,,2013-04-23 02:12:00,
2013-04-22 21:21:00,52.0,50.0,30.00,NNE,13,4.0,-999.0,94,-99.99,,,-99.99,,2013-04-23 02:21:00,
2013-04-22 21:32:00,51.0,49.0,30.00,NNE,13,0.0,-999.0,94,-99.99,,,-99.99,,2013-04-23 02:32:00,
2013-04-22 21:42:00,51.0,49.0,30.00,NNE,13,0.0,-999.0,94,-99.99,,,-99.99,,2013-04-23 02:42:00,
2013-04-22 21:52:00,49.0,47.0,30.01,North,5,3.0,-999.0,93,-99.99,,,-99.99,,2013-04-23 02:52:00,
2013-04-22 22:01:00,47.0,45.0,30.03,NNW,344,5.0,-999.0,94,-99.99,,,-99.99,,2013-04-23 03:01:00,
2013-04-22 22:11:00,47.0,45.0,30.03,NNW,344,5.0,-999.0,94,-99.99,,,-99.99,,2013-04-23 03:11:00,
2013-04-22 22:21:00,46.0,44.0,30.04,North,350,6.0,-999.0,94,-99.99,,,-99.99,,2013-04-23 03:21:00,
2013-04-22 22:33:00,45.0,43.0,30.04,North,5,8.0,-999.0,93,-99.99,,,-99.99,,2013-04-23 03:33:00,
2013-04-22 22:43:00,45.0,43.0,30.04,North,5,8.0,-999.0,93,-99.99,,,-99.99,,2013-04-23 03:43:00,
2013-04-22 22:52:00,44.0,42.0,30.03,North,360,8.0,-999.0,94,-99.99,,,-99.99,,2013-04-23 03:52:00,
2013-04-22 23:03:00,42.0,40.0,30.04,North,360,7.0,-999.0,93,-99.99,,,-99.99,,2013-04-23 04:03:00,
2013-04-22 23:12:00,42.0,40.0,30.04,North,360,7.0,-999.0,93,-99.99,,,-99.99,,2013-04-23 04:12:00,
2013-04-22 23:23:00,42.0,40.0,30.04,North,5,0.0,-999.0,94,-99.99,,,-99.99,,2013-04-23 04:23:00,
2013-04-22 23:33:00,42.0,40.0,30.05,NNE,12,0.0,-999.0,94,-99.99,,,-99.99,,2013-04-23 04:33:00,
2013-04-22 23:43:00,42.0,40.0,30.05,NNE,12,0.0,-999.0,94,-99.99,,,-99.99,,2013-04-23 04:43:00,
2013-04-22 23:52:00,41.0,39.0,30.05,North,5,0.0,-999.0,94,-99.99,,,-99.99,,2013-04-23 04:52:00,